| time (UTC) | temp F | wind direction | speed MPH | gust MPH | rain 1hr in | rain 24hr in | rain mn in | humidity % | barometer mb |
| 20260508014042 | 60 | 0 | 0.0 | 0.0 | 0.00 | 0.00 | 0.00 | 68 | 1021.2 |
| 20260508013540 | 60 | 0 | 0.0 | 2.0 | 0.00 | 0.00 | 0.00 | 67 | 1021.2 |
| 20260508013044 | 60 | 0 | 0.0 | 4.0 | 0.00 | 0.00 | 0.00 | 67 | 1021.2 |
| 20260508012539 | 61 | 70 | 2.0 | 4.0 | 0.00 | 0.00 | 0.00 | 67 | 1021.2 |
| 20260508012042 | 61 | 76 | 0.0 | 4.0 | 0.00 | 0.00 | 0.00 | 66 | 1021.2 |
| 20260508011554 | 61 | 0 | 1.0 | 8.0 | 0.00 | 0.00 | 0.00 | 66 | 1021.2 |
| 20260508011039 | 62 | 96 | 4.0 | 8.0 | 0.00 | 0.00 | 0.00 | 65 | 1021.2 |
| 20260508010539 | 62 | 66 | 3.0 | 6.0 | 0.00 | 0.00 | 0.00 | 64 | 1021.2 |
| 20260508010047 | 63 | 70 | 4.0 | 6.0 | 0.00 | 0.00 | 0.00 | 64 | 1021.2 |
| 20260508005542 | 63 | 70 | 0.0 | 7.0 | 0.00 | 0.00 | 0.00 | 63 | 1021.2 |
| 20260508005040 | 63 | 10 | 0.0 | 7.0 | 0.00 | 0.00 | 0.00 | 62 | 1021.2 |
| 20260508004552 | 64 | 0 | 0.0 | 5.0 | 0.00 | 0.00 | 0.00 | 62 | 1021.2 |
| 20260508004039 | 64 | 0 | 1.0 | 7.0 | 0.00 | 0.00 | 0.00 | 62 | 1021.2 |
| 20260508003539 | 64 | 0 | 0.0 | 8.0 | 0.00 | 0.00 | 0.00 | 61 | 1021.2 |
| 20260508003044 | 64 | 0 | 1.0 | 8.0 | 0.00 | 0.00 | 0.00 | 62 | 1021.2 |
| 20260508002543 | 65 | 63 | 0.0 | 6.0 | 0.00 | 0.00 | 0.00 | 60 | 1021.2 |
| 20260508002039 | 65 | 0 | 1.0 | 8.0 | 0.00 | 0.00 | 0.00 | 60 | 1021.2 |
| 20260508001548 | 65 | 337 | 1.0 | 8.0 | 0.00 | 0.00 | 0.00 | 60 | 1021.2 |
| 20260508001039 | 65 | 61 | 2.0 | 8.0 | 0.00 | 0.00 | 0.00 | 59 | 1021.2 |
| 20260508000539 | 66 | 0 | 0.0 | 6.0 | 0.00 | 0.00 | 0.00 | 58 | 1021.2 |
| 20260508000044 | 66 | 30 | 0.0 | 6.0 | 0.00 | 0.00 | 0.00 | 58 | 1021.2 |
| 20260507235539 | 66 | 81 | 0.0 | 6.0 | 0.00 | 0.00 | 0.00 | 58 | 1021.2 |
| 20260507235039 | 66 | 32 | 1.0 | 6.0 | 0.00 | 0.00 | 0.00 | 58 | 1021.2 |
| 20260507234544 | 66 | 51 | 0.0 | 6.0 | 0.00 | 0.00 | 0.00 | 58 | 1021.2 |
| 20260507234039 | 66 | 46 | 2.0 | 6.0 | 0.00 | 0.00 | 0.00 | 58 | 1021.2 |
| 20260507233539 | 66 | 69 | 0.0 | 9.0 | 0.00 | 0.00 | 0.00 | 58 | 1021.2 |
| 20260507233058 | 65 | 0 | 1.0 | 11.0 | 0.00 | 0.00 | 0.00 | 59 | 1021.2 |
| 20260507232540 | 65 | 67 | 3.0 | 11.0 | 0.00 | 0.00 | 0.00 | 58 | 1021.2 |
| 20260507232039 | 66 | 93 | 2.0 | 7.0 | 0.00 | 0.00 | 0.00 | 57 | 1021.2 |
| 20260507231544 | 66 | 0 | 0.0 | 11.0 | 0.00 | 0.00 | 0.00 | 57 | 1021.2 |
| 20260507231039 | 65 | 0 | 1.0 | 11.0 | 0.00 | 0.00 | 0.00 | 58 | 1021.2 |
| 20260507230542 | 65 | 83 | 3.0 | 9.0 | 0.00 | 0.00 | 0.00 | 59 | 1021.2 |
| 20260507230054 | 64 | 103 | 1.0 | 5.0 | 0.00 | 0.00 | 0.00 | 60 | 1021.2 |
| 20260507225539 | 65 | 83 | 0.0 | 8.0 | 0.00 | 0.00 | 0.00 | 60 | 1021.2 |
| 20260507225040 | 65 | 0 | 3.0 | 9.0 | 0.00 | 0.00 | 0.00 | 59 | 1021.2 |
| 20260507224556 | 65 | 125 | 4.0 | 9.0 | 0.00 | 0.00 | 0.00 | 58 | 1021.2 |
| 20260507224043 | 66 | 98 | 4.0 | 10.0 | 0.00 | 0.00 | 0.00 | 57 | 1021.2 |
| 20260507223543 | 66 | 80 | 4.0 | 10.0 | 0.00 | 0.00 | 0.00 | 56 | 1021.2 |
| 20260507223048 | 67 | 0 | 2.0 | 14.0 | 0.00 | 0.00 | 0.00 | 54 | 1021.2 |
| 20260507222540 | 68 | 57 | 2.0 | 14.0 | 0.00 | 0.00 | 0.00 | 54 | 1021.2 |
| 20260507222039 | 68 | 122 | 5.0 | 14.0 | 0.00 | 0.00 | 0.00 | 54 | 1021.2 |
| 20260507221551 | 68 | 68 | 2.0 | 12.0 | 0.00 | 0.00 | 0.00 | 53 | 1021.2 |
| 20260507221042 | 68 | 68 | 4.0 | 13.0 | 0.00 | 0.00 | 0.00 | 53 | 1021.2 |
| 20260507220539 | 69 | 139 | 6.0 | 13.0 | 0.00 | 0.00 | 0.00 | 52 | 1021.2 |
| 20260507220050 | 68 | 106 | 5.0 | 12.0 | 0.00 | 0.00 | 0.00 | 54 | 1021.2 |
| 20260507215543 | 69 | 82 | 7.0 | 12.0 | 0.00 | 0.00 | 0.00 | 51 | 1021.2 |
| 20260507215040 | 69 | 0 | 1.0 | 11.0 | 0.00 | 0.00 | 0.00 | 52 | 1021.2 |
| 20260507214601 | 69 | 86 | 2.0 | 11.0 | 0.00 | 0.00 | 0.00 | 51 | 1021.2 |
| 20260507214039 | 69 | 224 | 6.0 | 11.0 | 0.00 | 0.00 | 0.00 | 51 | 1021.2 |
| 20260507213539 | 70 | 131 | 2.0 | 9.0 | 0.00 | 0.00 | 0.00 | 50 | 1021.2 |
| 20260507213101 | 69 | 153 | 4.0 | 9.0 | 0.00 | 0.00 | 0.00 | 50 | 1021.2 |
| 20260507212541 | 69 | 0 | 3.0 | 10.0 | 0.00 | 0.00 | 0.00 | 50 | 1021.2 |
| 20260507212040 | 70 | 93 | 5.0 | 14.0 | 0.00 | 0.00 | 0.00 | 49 | 1021.2 |
| 20260507211547 | 70 | 181 | 5.0 | 14.0 | 0.00 | 0.00 | 0.00 | 51 | 1021.2 |
| 20260507211039 | 70 | 49 | 5.0 | 13.0 | 0.00 | 0.00 | 0.00 | 51 | 1021.2 |
| 20260507210544 | 70 | 145 | 4.0 | 12.0 | 0.00 | 0.00 | 0.00 | 51 | 1021.2 |
| 20260507210056 | 69 | 118 | 6.0 | 13.0 | 0.00 | 0.00 | 0.00 | 53 | 1021.2 |
| 20260507205540 | 69 | 149 | 5.0 | 13.0 | 0.00 | 0.00 | 0.00 | 50 | 1021.2 |
| 20260507205040 | 70 | 182 | 5.0 | 17.0 | 0.00 | 0.00 | 0.00 | 50 | 1021.2 |
| 20260507204550 | 69 | 73 | 4.0 | 17.0 | 0.00 | 0.00 | 0.00 | 52 | 1021.2 |
| 20260507204042 | 69 | 68 | 3.0 | 12.0 | 0.00 | 0.00 | 0.00 | 51 | 1021.2 |
| 20260507203539 | 69 | 142 | 4.0 | 13.0 | 0.00 | 0.00 | 0.00 | 50 | 1021.2 |
| 20260507203048 | 70 | 181 | 4.0 | 13.0 | 0.00 | 0.00 | 0.00 | 50 | 1021.2 |
| 20260507202540 | 69 | 140 | 5.0 | 16.0 | 0.00 | 0.00 | 0.00 | 50 | 1021.2 |
| 20260507202039 | 70 | 129 | 5.0 | 16.0 | 0.00 | 0.00 | 0.00 | 50 | 1021.2 |
| 20260507201549 | 69 | 86 | 7.0 | 16.0 | 0.00 | 0.00 | 0.00 | 51 | 1021.2 |
| 20260507201039 | 69 | 117 | 5.0 | 13.0 | 0.00 | 0.00 | 0.00 | 49 | 1021.2 |
| 20260507200539 | 69 | 96 | 6.0 | 13.0 | 0.00 | 0.00 | 0.00 | 50 | 1021.2 |
| 20260507200047 | 69 | 139 | 5.0 | 16.0 | 0.00 | 0.00 | 0.00 | 50 | 1021.2 |
| 20260507195543 | 69 | 245 | 8.0 | 16.0 | 0.00 | 0.00 | 0.00 | 49 | 1021.2 |
| 20260507195039 | 70 | 131 | 3.0 | 13.0 | 0.00 | 0.00 | 0.00 | 48 | 1021.2 |
| 20260507194615 | 69 | 120 | 6.0 | 13.0 | 0.00 | 0.00 | 0.00 | 48 | 1021.2 |
| 20260507194038 | 69 | 150 | 6.0 | 12.0 | 0.00 | 0.00 | 0.00 | 48 | 1021.2 |
| 20260507193539 | 69 | 183 | 4.0 | 12.0 | 0.00 | 0.00 | 0.00 | 48 | 1021.2 |
| 20260507193048 | 69 | 121 | 6.0 | 13.0 | 0.00 | 0.00 | 0.00 | 48 | 1021.2 |
| 20260507192542 | 70 | 146 | 5.0 | 13.0 | 0.00 | 0.00 | 0.00 | 47 | 1021.2 |
| 20260507192039 | 70 | 243 | 5.0 | 12.0 | 0.00 | 0.00 | 0.00 | 46 | 1021.2 |
| 20260507191543 | 70 | 354 | 5.0 | 17.0 | 0.00 | 0.00 | 0.00 | 45 | 1021.2 |
| 20260507191039 | 70 | 140 | 4.0 | 17.0 | 0.00 | 0.00 | 0.00 | 44 | 1021.2 |
| 20260507190539 | 70 | 144 | 4.0 | 10.0 | 0.00 | 0.00 | 0.00 | 43 | 1021.2 |
| 20260507190052 | 70 | 148 | 5.0 | 10.0 | 0.00 | 0.00 | 0.00 | 43 | 1021.2 |
| 20260507185539 | 70 | 86 | 4.0 | 14.0 | 0.00 | 0.00 | 0.00 | 43 | 1021.2 |
| 20260507185041 | 70 | 138 | 6.0 | 14.0 | 0.00 | 0.00 | 0.00 | 41 | 1021.2 |
| 20260507184551 | 70 | 126 | 6.0 | 13.0 | 0.00 | 0.00 | 0.00 | 38 | 1021.2 |
| 20260507184039 | 70 | 160 | 4.0 | 12.0 | 0.00 | 0.00 | 0.00 | 39 | 1021.2 |
| 20260507183540 | 69 | 149 | 5.0 | 12.0 | 0.00 | 0.00 | 0.00 | 40 | 1021.2 |
| 20260507183051 | 70 | 180 | 6.0 | 12.0 | 0.00 | 0.00 | 0.00 | 39 | 1021.2 |
| 20260507182539 | 69 | 113 | 5.0 | 12.0 | 0.00 | 0.00 | 0.00 | 39 | 1021.2 |
| 20260507182040 | 70 | 120 | 5.0 | 11.0 | 0.00 | 0.00 | 0.00 | 40 | 1021.2 |
| 20260507181551 | 70 | 143 | 5.0 | 10.0 | 0.00 | 0.00 | 0.00 | 40 | 1021.2 |
| 20260507181040 | 69 | 126 | 4.0 | 10.0 | 0.00 | 0.00 | 0.00 | 39 | 1021.2 |
| 20260507180540 | 69 | 163 | 4.0 | 10.0 | 0.00 | 0.00 | 0.00 | 39 | 1021.2 |
| 20260507180048 | 69 | 151 | 5.0 | 10.0 | 0.00 | 0.00 | 0.00 | 40 | 1021.2 |
| 20260507175539 | 69 | 153 | 5.0 | 10.0 | 0.00 | 0.00 | 0.00 | 39 | 1021.2 |
| 20260507175039 | 68 | 128 | 4.0 | 10.0 | 0.00 | 0.00 | 0.00 | 41 | 1021.2 |
| 20260507174555 | 69 | 132 | 4.0 | 10.0 | 0.00 | 0.00 | 0.00 | 42 | 1021.2 |
| 20260507174039 | 68 | 154 | 4.0 | 10.0 | 0.00 | 0.00 | 0.00 | 42 | 1021.2 |
| 20260507173540 | 68 | 166 | 4.0 | 10.0 | 0.00 | 0.00 | 0.00 | 40 | 1021.2 |
| 20260507173113 | 68 | 72 | 5.0 | 12.0 | 0.00 | 0.00 | 0.00 | 41 | 1021.2 |
| 20260507172542 | 68 | 194 | 4.0 | 12.0 | 0.00 | 0.00 | 0.00 | 43 | 1021.2 |
| 20260507172039 | 68 | 123 | 5.0 | 8.0 | 0.00 | 0.00 | 0.00 | 41 | 1021.2 |
| 20260507171548 | 68 | 212 | 4.0 | 9.0 | 0.00 | 0.00 | 0.00 | 40 | 1021.2 |
| 20260507171040 | 68 | 155 | 3.0 | 12.0 | 0.00 | 0.00 | 0.00 | 40 | 1021.2 |
| 20260507170539 | 68 | 192 | 5.0 | 12.0 | 0.00 | 0.00 | 0.00 | 41 | 1021.2 |
| 20260507170111 | 68 | 179 | 5.0 | 10.0 | 0.00 | 0.00 | 0.00 | 40 | 1021.2 |
| 20260507165540 | 68 | 87 | 2.0 | 8.0 | 0.00 | 0.00 | 0.00 | 39 | 1021.2 |
| 20260507165039 | 68 | 68 | 4.0 | 8.0 | 0.00 | 0.00 | 0.00 | 39 | 1021.2 |
| 20260507164555 | 67 | 62 | 3.0 | 10.0 | 0.00 | 0.00 | 0.00 | 39 | 1021.2 |
| 20260507164039 | 66 | 65 | 4.0 | 10.0 | 0.00 | 0.00 | 0.00 | 42 | 1021.2 |
| 20260507163542 | 66 | 90 | 3.0 | 9.0 | 0.00 | 0.00 | 0.00 | 43 | 1021.2 |
| 20260507163048 | 65 | 45 | 3.0 | 9.0 | 0.00 | 0.00 | 0.00 | 44 | 1021.2 |
| 20260507162537 | 65 | 63 | 2.0 | 7.0 | 0.00 | 0.00 | 0.00 | 44 | 1021.2 |
| 20260507162043 | 64 | 40 | 2.0 | 8.0 | 0.00 | 0.00 | 0.00 | 48 | 1021.2 |
| 20260507161600 | 64 | 66 | 3.0 | 8.0 | 0.00 | 0.00 | 0.00 | 47 | 1021.2 |
| 20260507161040 | 63 | 61 | 4.0 | 8.0 | 0.00 | 0.00 | 0.00 | 47 | 1021.2 |
| 20260507160539 | 63 | 81 | 2.0 | 6.0 | 0.00 | 0.00 | 0.00 | 51 | 1021.2 |
| 20260507160045 | 63 | 127 | 3.0 | 6.0 | 0.00 | 0.00 | 0.00 | 52 | 1021.2 |
| 20260507155540 | 62 | 88 | 2.0 | 6.0 | 0.00 | 0.00 | 0.00 | 53 | 1021.2 |
| 20260507155037 | 61 | 94 | 2.0 | 7.0 | 0.00 | 0.00 | 0.00 | 54 | 1021.2 |
| 20260507154545 | 61 | 49 | 3.0 | 7.0 | 0.00 | 0.00 | 0.00 | 55 | 1021.2 |
| 20260507154039 | 60 | 89 | 3.0 | 7.0 | 0.00 | 0.00 | 0.00 | 56 | 1021.2 |
| 20260507153540 | 60 | 81 | 3.0 | 7.0 | 0.00 | 0.00 | 0.00 | 58 | 1021.2 |
| 20260507153056 | 59 | 28 | 2.0 | 6.0 | 0.00 | 0.00 | 0.00 | 58 | 1021.2 |
| 20260507152540 | 59 | 57 | 3.0 | 7.0 | 0.00 | 0.00 | 0.00 | 60 | 1021.2 |
| 20260507152039 | 58 | 63 | 3.0 | 7.0 | 0.00 | 0.00 | 0.00 | 59 | 1021.2 |
| 20260507151548 | 58 | 72 | 1.0 | 6.0 | 0.00 | 0.00 | 0.00 | 59 | 1021.2 |
| 20260507151039 | 57 | 67 | 3.0 | 5.0 | 0.00 | 0.00 | 0.00 | 59 | 1021.2 |
| 20260507150539 | 57 | 46 | 2.0 | 7.0 | 0.00 | 0.00 | 0.00 | 59 | 1021.2 |
| 20260507150100 | 57 | 65 | 4.0 | 7.0 | 0.00 | 0.00 | 0.00 | 58 | 1021.2 |
| 20260507145539 | 57 | 63 | 2.0 | 7.0 | 0.00 | 0.00 | 0.00 | 58 | 1021.2 |
| 20260507145041 | 56 | 66 | 2.0 | 7.0 | 0.00 | 0.00 | 0.00 | 58 | 1021.2 |
| 20260507144548 | 56 | 58 | 2.0 | 5.0 | 0.00 | 0.00 | 0.00 | 58 | 1021.2 |
| 20260507144043 | 56 | 72 | 2.0 | 5.0 | 0.00 | 0.00 | 0.00 | 58 | 1021.2 |
| 20260507143539 | 55 | 131 | 2.0 | 5.0 | 0.00 | 0.00 | 0.00 | 58 | 1021.2 |
| 20260507143048 | 55 | 104 | 2.0 | 5.0 | 0.00 | 0.00 | 0.00 | 58 | 1021.2 |
| 20260507142539 | 55 | 74 | 1.0 | 4.0 | 0.00 | 0.00 | 0.00 | 59 | 1021.2 |
| 20260507142039 | 53 | 165 | 2.0 | 5.0 | 0.00 | 0.00 | 0.00 | 60 | 1021.2 |
| 20260507141619 | 53 | 0 | 1.0 | 5.0 | 0.00 | 0.00 | 0.00 | 63 | 1021.2 |
| 20260507141041 | 53 | 64 | 3.0 | 5.0 | 0.00 | 0.00 | 0.00 | 61 | 1021.2 |
| 20260507140540 | 52 | 72 | 2.0 | 7.0 | 0.00 | 0.00 | 0.00 | 61 | 1021.2 |
| 20260507140049 | 52 | 71 | 3.0 | 7.0 | 0.00 | 0.00 | 0.00 | 61 | 1021.2 |
| 20260507135539 | 53 | 68 | 2.0 | 5.0 | 0.00 | 0.00 | 0.00 | 60 | 1021.2 |
| 20260507135038 | 53 | 75 | 0.0 | 3.0 | 0.00 | 0.00 | 0.00 | 60 | 1021.2 |
| 20260507134549 | 52 | 79 | 1.0 | 3.0 | 0.00 | 0.00 | 0.00 | 60 | 1021.2 |
| 20260507134038 | 53 | 75 | 0.0 | 2.0 | 0.00 | 0.00 | 0.00 | 59 | 1021.2 |
| 20260507133539 | 52 | 0 | 0.0 | 3.0 | 0.00 | 0.00 | 0.00 | 61 | 1021.2 |
| 20260507133048 | 51 | 68 | 1.0 | 3.0 | 0.00 | 0.00 | 0.00 | 61 | 1021.2 |
| 20260507132539 | 51 | 68 | 0.0 | 3.0 | 0.00 | 0.00 | 0.00 | 61 | 1021.2 |
| 20260507132035 | 50 | 0 | 0.0 | 3.0 | 0.00 | 0.00 | 0.00 | 62 | 1021.2 |
| 20260507131545 | 49 | 0 | 0.0 | 3.0 | 0.00 | 0.00 | 0.00 | 63 | 1021.2 |
| 20260507131038 | 48 | 0 | 0.0 | 0.0 | 0.00 | 0.00 | 0.00 | 62 | 1021.2 |
| 20260507130538 | 46 | 0 | 0.0 | 0.0 | 0.00 | 0.00 | 0.00 | 63 | 1021.2 |
| 20260507130045 | 44 | 0 | 0.0 | 0.0 | 0.00 | 0.00 | 0.00 | 65 | 1021.2 |
| 20260507125538 | 43 | 0 | 0.0 | 0.0 | 0.00 | 0.00 | 0.00 | 63 | 1021.2 |
| 20260507125040 | 42 | 0 | 0.0 | 0.0 | 0.00 | 0.00 | 0.00 | 64 | 1021.2 |
| 20260507124547 | 40 | 0 | 0.0 | 0.0 | 0.00 | 0.00 | 0.00 | 66 | 1021.2 |
| 20260507124039 | 39 | 0 | 0.0 | 0.0 | 0.00 | 0.00 | 0.00 | 67 | 1021.2 |
| 20260507123539 | 38 | 0 | 0.0 | 0.0 | 0.00 | 0.00 | 0.00 | 68 | 1021.2 |
| 20260507123043 | 37 | 0 | 0.0 | 0.0 | 0.00 | 0.00 | 0.00 | 71 | 1021.2 |
| 20260507122538 | 36 | 0 | 0.0 | 0.0 | 0.00 | 0.00 | 0.00 | 69 | 1021.2 |
| 20260507122039 | 37 | 0 | 0.0 | 0.0 | 0.00 | 0.00 | 0.00 | 68 | 1021.2 |
| 20260507121550 | 37 | 0 | 0.0 | 0.0 | 0.00 | 0.00 | 0.00 | 69 | 1021.2 |
| 20260507121035 | 37 | 0 | 0.0 | 0.0 | 0.00 | 0.00 | 0.00 | 68 | 1021.2 |
| 20260507120538 | 37 | 0 | 0.0 | 0.0 | 0.00 | 0.00 | 0.00 | 67 | 1021.2 |
| 20260507120059 | 37 | 0 | 0.0 | 0.0 | 0.00 | 0.00 | 0.00 | 66 | 1021.2 |
| 20260507115539 | 37 | 0 | 0.0 | 0.0 | 0.00 | 0.00 | 0.00 | 65 | 1021.2 |
| 20260507115040 | 38 | 0 | 0.0 | 0.0 | 0.00 | 0.00 | 0.00 | 65 | 1021.2 |
| 20260507114546 | 38 | 0 | 0.0 | 0.0 | 0.00 | 0.00 | 0.00 | 64 | 1021.2 |
| 20260507114038 | 38 | 0 | 0.0 | 0.0 | 0.00 | 0.00 | 0.00 | 63 | 1021.2 |
| 20260507113539 | 39 | 0 | 0.0 | 0.0 | 0.00 | 0.00 | 0.00 | 62 | 1021.2 |
| 20260507113050 | 39 | 0 | 0.0 | 0.0 | 0.00 | 0.00 | 0.00 | 62 | 1021.2 |
| 20260507112538 | 39 | 0 | 0.0 | 0.0 | 0.00 | 0.00 | 0.00 | 61 | 1021.2 |
| 20260507112038 | 40 | 0 | 0.0 | 0.0 | 0.00 | 0.00 | 0.00 | 62 | 1021.2 |
| 20260507111547 | 40 | 0 | 0.0 | 0.0 | 0.00 | 0.00 | 0.00 | 61 | 1021.2 |
| 20260507111039 | 40 | 0 | 0.0 | 0.0 | 0.00 | 0.00 | 0.00 | 61 | 1021.2 |
| 20260507110540 | 40 | 0 | 0.0 | 0.0 | 0.00 | 0.00 | 0.00 | 59 | 1021.2 |
| 20260507110043 | 41 | 0 | 0.0 | 0.0 | 0.00 | 0.00 | 0.00 | 59 | 1021.2 |
| 20260507105537 | 42 | 0 | 0.0 | 0.0 | 0.00 | 0.00 | 0.00 | 58 | 1021.2 |
| 20260507105039 | 41 | 0 | 0.0 | 0.0 | 0.00 | 0.00 | 0.00 | 57 | 1021.2 |
| 20260507104547 | 42 | 0 | 0.0 | 0.0 | 0.00 | 0.00 | 0.00 | 56 | 1021.2 |
| 20260507104038 | 43 | 0 | 0.0 | 0.0 | 0.00 | 0.00 | 0.00 | 54 | 1021.2 |
| 20260507103539 | 43 | 0 | 0.0 | 0.0 | 0.00 | 0.00 | 0.00 | 56 | 1021.2 |
| 20260507103047 | 43 | 0 | 0.0 | 1.0 | 0.00 | 0.00 | 0.00 | 55 | 1021.2 |
| 20260507102539 | 43 | 0 | 0.0 | 1.0 | 0.00 | 0.00 | 0.00 | 55 | 1021.2 |
| 20260507102042 | 43 | 0 | 0.0 | 2.0 | 0.00 | 0.00 | 0.00 | 54 | 1021.2 |
| 20260507101552 | 44 | 0 | 0.0 | 4.0 | 0.00 | 0.00 | 0.00 | 53 | 1021.2 |
| 20260507101038 | 43 | 0 | 1.0 | 4.0 | 0.00 | 0.00 | 0.00 | 54 | 1021.2 |
| 20260507100542 | 43 | 221 | 2.0 | 4.0 | 0.00 | 0.00 | 0.00 | 55 | 1021.2 |
| 20260507100047 | 41 | 253 | 1.0 | 3.0 | 0.00 | 0.00 | 0.00 | 58 | 1021.2 |
| 20260507095538 | 41 | 0 | 0.0 | 0.0 | 0.00 | 0.00 | 0.00 | 60 | 1021.2 |
| 20260507095037 | 41 | 0 | 0.0 | 0.0 | 0.00 | 0.00 | 0.00 | 58 | 1021.2 |
| 20260507094550 | 42 | 0 | 0.0 | 0.0 | 0.00 | 0.00 | 0.00 | 57 | 1021.2 |
| 20260507094039 | 41 | 0 | 0.0 | 0.0 | 0.00 | 0.00 | 0.00 | 59 | 1021.2 |
| 20260507093539 | 41 | 0 | 0.0 | 0.0 | 0.00 | 0.00 | 0.00 | 59 | 1021.2 |
| 20260507093048 | 41 | 0 | 0.0 | 0.0 | 0.00 | 0.00 | 0.00 | 60 | 1021.2 |
| 20260507092539 | 41 | 0 | 0.0 | 0.0 | 0.00 | 0.00 | 0.00 | 62 | 1021.2 |
| 20260507092042 | 41 | 0 | 0.0 | 0.0 | 0.00 | 0.00 | 0.00 | 60 | 1021.2 |
| 20260507091549 | 42 | 0 | 0.0 | 0.0 | 0.00 | 0.00 | 0.00 | 60 | 1021.2 |
| 20260507091039 | 42 | 0 | 0.0 | 0.0 | 0.00 | 0.00 | 0.00 | 60 | 1021.2 |
| 20260507090539 | 42 | 0 | 0.0 | 0.0 | 0.00 | 0.00 | 0.00 | 58 | 1021.2 |
| 20260507090048 | 43 | 0 | 0.0 | 0.0 | 0.00 | 0.00 | 0.00 | 58 | 1021.2 |
| 20260507085538 | 43 | 0 | 0.0 | 0.0 | 0.00 | 0.00 | 0.00 | 56 | 1021.2 |
| 20260507085041 | 44 | 0 | 0.0 | 0.0 | 0.00 | 0.00 | 0.00 | 55 | 1021.2 |
| 20260507084549 | 44 | 0 | 0.0 | 0.0 | 0.00 | 0.00 | 0.00 | 54 | 1021.2 |
| 20260507084040 | 45 | 0 | 0.0 | 0.0 | 0.00 | 0.00 | 0.00 | 53 | 1021.2 |
| 20260507083538 | 45 | 0 | 0.0 | 0.0 | 0.00 | 0.00 | 0.00 | 53 | 1021.2 |
| 20260507083047 | 45 | 0 | 0.0 | 0.0 | 0.00 | 0.00 | 0.00 | 53 | 1021.2 |
| 20260507082539 | 45 | 0 | 0.0 | 0.0 | 0.00 | 0.00 | 0.00 | 53 | 1021.2 |
| 20260507082041 | 44 | 0 | 0.0 | 0.0 | 0.00 | 0.00 | 0.00 | 55 | 1021.2 |
| 20260507081551 | 43 | 0 | 0.0 | 0.0 | 0.00 | 0.00 | 0.00 | 56 | 1021.2 |
| 20260507081040 | 43 | 0 | 0.0 | 0.0 | 0.00 | 0.00 | 0.00 | 57 | 1021.2 |
| 20260507080540 | 43 | 0 | 0.0 | 0.0 | 0.00 | 0.00 | 0.00 | 57 | 1021.2 |
| 20260507080051 | 43 | 0 | 0.0 | 0.0 | 0.00 | 0.00 | 0.00 | 56 | 1021.2 |
| 20260507075540 | 43 | 0 | 0.0 | 0.0 | 0.00 | 0.00 | 0.00 | 57 | 1021.2 |
| 20260507075040 | 43 | 0 | 0.0 | 0.0 | 0.00 | 0.00 | 0.00 | 57 | 1021.2 |
| 20260507074556 | 43 | 0 | 0.0 | 0.0 | 0.00 | 0.00 | 0.00 | 57 | 1021.2 |
| 20260507074039 | 43 | 0 | 0.0 | 0.0 | 0.00 | 0.00 | 0.00 | 57 | 1021.2 |
| 20260507073540 | 43 | 0 | 0.0 | 0.0 | 0.00 | 0.00 | 0.00 | 57 | 1021.2 |
| 20260507073121 | 43 | 0 | 0.0 | 0.0 | 0.00 | 0.00 | 0.00 | 56 | 1021.2 |
| 20260507072540 | 44 | 0 | 0.0 | 0.0 | 0.00 | 0.00 | 0.00 | 55 | 1021.2 |
| 20260507072039 | 44 | 0 | 0.0 | 0.0 | 0.00 | 0.00 | 0.00 | 55 | 1021.2 |
| 20260507071546 | 45 | 0 | 0.0 | 0.0 | 0.00 | 0.00 | 0.00 | 53 | 1021.2 |
| 20260507071040 | 45 | 0 | 0.0 | 0.0 | 0.00 | 0.00 | 0.00 | 52 | 1021.2 |
| 20260507070539 | 46 | 0 | 0.0 | 0.0 | 0.00 | 0.00 | 0.00 | 51 | 1021.2 |
| 20260507070051 | 46 | 0 | 0.0 | 0.0 | 0.00 | 0.00 | 0.00 | 51 | 1021.2 |
| 20260507065540 | 46 | 0 | 0.0 | 0.0 | 0.00 | 0.00 | 0.00 | 52 | 1021.2 |
| 20260507065041 | 46 | 0 | 0.0 | 0.0 | 0.00 | 0.00 | 0.00 | 51 | 1021.2 |
| 20260507064604 | 46 | 0 | 0.0 | 2.0 | 0.00 | 0.00 | 0.00 | 51 | 1021.2 |
| 20260507064040 | 46 | 0 | 0.0 | 2.0 | 0.00 | 0.00 | 0.00 | 52 | 1021.2 |
| 20260507063540 | 45 | 0 | 0.0 | 0.0 | 0.00 | 0.00 | 0.00 | 52 | 1021.2 |
| 20260507063057 | 45 | 0 | 0.0 | 0.0 | 0.00 | 0.00 | 0.00 | 53 | 1021.2 |
| 20260507062540 | 45 | 0 | 0.0 | 2.0 | 0.00 | 0.00 | 0.00 | 52 | 1021.2 |
| 20260507062040 | 46 | 0 | 0.0 | 2.0 | 0.00 | 0.00 | 0.00 | 52 | 1021.2 |
| 20260507061546 | 46 | 219 | 0.0 | 0.0 | 0.00 | 0.00 | 0.00 | 51 | 1021.2 |
| 20260507061039 | 45 | 0 | 0.0 | 0.0 | 0.00 | 0.00 | 0.00 | 52 | 1021.2 |
| 20260507060540 | 45 | 0 | 0.0 | 0.0 | 0.00 | 0.00 | 0.00 | 53 | 1021.2 |
| 20260507060051 | 45 | 0 | 0.0 | 0.0 | 0.00 | 0.00 | 0.00 | 52 | 1021.2 |
| 20260507055540 | 46 | 0 | 0.0 | 0.0 | 0.00 | 0.00 | 0.00 | 51 | 1021.2 |
| 20260507055040 | 46 | 0 | 0.0 | 0.0 | 0.00 | 0.00 | 0.00 | 51 | 1021.2 |
| 20260507054544 | 46 | 0 | 0.0 | 0.0 | 0.00 | 0.00 | 0.00 | 51 | 1021.2 |
| 20260507054039 | 46 | 0 | 0.0 | 0.0 | 0.00 | 0.00 | 0.00 | 50 | 1021.2 |
| 20260507053539 | 46 | 0 | 0.0 | 0.0 | 0.00 | 0.00 | 0.00 | 50 | 1021.2 |
| 20260507053045 | 47 | 0 | 0.0 | 1.0 | 0.00 | 0.00 | 0.00 | 49 | 1021.2 |
| 20260507052540 | 47 | 0 | 0.0 | 1.0 | 0.00 | 0.00 | 0.00 | 49 | 1021.2 |
| 20260507052039 | 47 | 276 | 0.0 | 1.0 | 0.00 | 0.00 | 0.00 | 50 | 1021.2 |
| 20260507051551 | 47 | 0 | 0.0 | 1.0 | 0.00 | 0.00 | 0.00 | 49 | 1021.2 |
| 20260507051042 | 47 | 0 | 0.0 | 0.0 | 0.00 | 0.00 | 0.00 | 50 | 1021.2 |
| 20260507050540 | 47 | 0 | 0.0 | 0.0 | 0.00 | 0.00 | 0.00 | 49 | 1021.2 |
| 20260507050058 | 47 | 0 | 0.0 | 0.0 | 0.00 | 0.00 | 0.00 | 50 | 1021.2 |
| 20260507045540 | 47 | 0 | 0.0 | 0.0 | 0.00 | 0.00 | 0.00 | 49 | 1021.2 |
| 20260507045040 | 47 | 0 | 0.0 | 0.0 | 0.00 | 0.00 | 0.00 | 50 | 1021.2 |
| 20260507044549 | 47 | 0 | 0.0 | 0.0 | 0.00 | 0.00 | 0.00 | 49 | 1021.2 |
| 20260507044039 | 47 | 0 | 0.0 | 0.0 | 0.00 | 0.00 | 0.00 | 50 | 1021.2 |
| 20260507043540 | 47 | 0 | 0.0 | 0.0 | 0.00 | 0.00 | 0.00 | 48 | 1021.2 |
| 20260507043051 | 47 | 0 | 0.0 | 0.0 | 0.00 | 0.00 | 0.00 | 50 | 1021.2 |
| 20260507042539 | 47 | 0 | 0.0 | 0.0 | 0.00 | 0.00 | 0.00 | 49 | 1021.2 |
| 20260507042040 | 48 | 0 | 0.0 | 0.0 | 0.00 | 0.00 | 0.00 | 48 | 1021.2 |
| 20260507041550 | 48 | 0 | 0.0 | 0.0 | 0.00 | 0.00 | 0.00 | 48 | 1021.2 |
| 20260507041039 | 48 | 0 | 0.0 | 0.0 | 0.00 | 0.00 | 0.00 | 47 | 1021.2 |
| 20260507040540 | 49 | 0 | 0.0 | 0.0 | 0.00 | 0.00 | 0.00 | 46 | 1021.2 |
| 20260507040046 | 49 | 0 | 0.0 | 0.0 | 0.00 | 0.00 | 0.00 | 46 | 1021.2 |
| 20260507035539 | 50 | 0 | 0.0 | 0.0 | 0.00 | 0.00 | 0.00 | 45 | 1021.2 |
| 20260507035040 | 50 | 0 | 0.0 | 0.0 | 0.00 | 0.00 | 0.00 | 44 | 1021.2 |
| 20260507034615 | 51 | 0 | 0.0 | 0.0 | 0.00 | 0.00 | 0.00 | 43 | 1021.2 |
| 20260507034040 | 51 | 0 | 0.0 | 0.0 | 0.00 | 0.00 | 0.00 | 43 | 1021.2 |
| 20260507033539 | 51 | 0 | 0.0 | 0.0 | 0.00 | 0.00 | 0.00 | 42 | 1021.2 |
| 20260507033103 | 52 | 0 | 0.0 | 0.0 | 0.00 | 0.00 | 0.00 | 41 | 1021.2 |
| 20260507032538 | 53 | 0 | 0.0 | 0.0 | 0.00 | 0.00 | 0.00 | 41 | 1021.2 |
| 20260507032039 | 53 | 0 | 0.0 | 0.0 | 0.00 | 0.00 | 0.00 | 40 | 1021.2 |
| 20260507031548 | 52 | 0 | 0.0 | 0.0 | 0.00 | 0.00 | 0.00 | 40 | 1021.2 |
| 20260507031040 | 52 | 0 | 0.0 | 0.0 | 0.00 | 0.00 | 0.00 | 40 | 1021.2 |
| 20260507030543 | 52 | 0 | 0.0 | 0.0 | 0.00 | 0.00 | 0.00 | 39 | 1021.2 |
| 20260507030047 | 52 | 0 | 0.0 | 0.0 | 0.00 | 0.00 | 0.00 | 40 | 1021.2 |
| 20260507025539 | 52 | 0 | 0.0 | 0.0 | 0.00 | 0.00 | 0.00 | 40 | 1021.2 |
| 20260507025039 | 52 | 0 | 0.0 | 0.0 | 0.00 | 0.00 | 0.00 | 41 | 1021.2 |
| 20260507024557 | 52 | 0 | 0.0 | 0.0 | 0.00 | 0.00 | 0.00 | 39 | 1021.2 |
| 20260507024043 | 53 | 0 | 0.0 | 0.0 | 0.00 | 0.00 | 0.00 | 40 | 1021.2 |
| 20260507023542 | 53 | 0 | 0.0 | 0.0 | 0.00 | 0.00 | 0.00 | 40 | 1021.2 |
| 20260507023050 | 54 | 0 | 0.0 | 0.0 | 0.00 | 0.00 | 0.00 | 37 | 1021.2 |
| 20260507022540 | 54 | 0 | 0.0 | 0.0 | 0.00 | 0.00 | 0.00 | 38 | 1021.2 |
| 20260507022039 | 55 | 0 | 0.0 | 0.0 | 0.00 | 0.00 | 0.00 | 36 | 1021.2 |
| 20260507021558 | 56 | 0 | 0.0 | 0.0 | 0.00 | 0.00 | 0.00 | 36 | 1021.2 |
| 20260507021044 | 57 | 0 | 0.0 | 0.0 | 0.00 | 0.00 | 0.00 | 33 | 1021.2 |
| 20260507020540 | 58 | 0 | 0.0 | 0.0 | 0.00 | 0.00 | 0.00 | 33 | 1021.2 |
| 20260507020051 | 59 | 0 | 0.0 | 0.0 | 0.00 | 0.00 | 0.00 | 32 | 1021.2 |
| 20260507015539 | 59 | 0 | 0.0 | 0.0 | 0.00 | 0.00 | 0.00 | 30 | 1021.2 |
| 20260507015040 | 60 | 0 | 0.0 | 0.0 | 0.00 | 0.00 | 0.00 | 29 | 1021.2 |
| 20260507014549 | 61 | 0 | 0.0 | 0.0 | 0.00 | 0.00 | 0.00 | 29 | 1021.2 |